Zurück zum Katalog

NINGXIA-1 10

AktivWissenschaftLEO
NORAD 49022·PAYLOAD·🇨🇳 China

Gestartet Jul 9, 2021 von Taiyuan Satellite Launch Center

Loading…

Nächste Überflüge (nächste 24 Stunden)

TLE

AktuellSource: Space-Track

Epoche: Sep 14, 2026, 14:04 UTC

1 49022U 21064E   26257.58642998 -.00000060  00000-0  41681-4 0  9994
2 49022  44.9990 182.5433 0009023 324.7307  35.2932 14.08563379266835

Verfolge NINGXIA-1 10 in Echtzeit mit AllMySat

Download on the App Store